• In Belarus
  • List of Countries
  • For 7 days
  • Water Temperature
  • Satellite Maps
  • Weather Map
  • Weather Widgets
  • user-avatar
    Login

    Hourly Weather Klyukino

    Today, 15 November, Thursday

    Time Temperature Precipitation Wind Pressure Humidity
    00:00 -4°C° 0 mm 3 mps 756 mmHg 80%
    01:00 -3°C° 0 mm 2 mps 757 mmHg 81%
    02:00 -3°C° 0 mm 2 mps 757 mmHg 81%
    03:00 -3°C° 0 mm 2 mps 758 mmHg 82%
    04:00 -3°C° 0 mm 2 mps 758 mmHg 83%
    05:00 -3°C° 0 mm 2 mps 758 mmHg 83%
    06:00 -3°C° 0 mm 2 mps 759 mmHg 82%
    07:00 -3°C° 0 mm 2 mps 759 mmHg 81%
    08:00 -2°C° 0 mm 2 mps 760 mmHg 80%
    09:00 -2°C° 0 mm 2 mps 760 mmHg 76%
    10:00 -1°C° 0 mm 2 mps 761 mmHg 73%
    11:00 -1°C° 0 mm 2 mps 761 mmHg 70%
    12:00 -1°C° 0 mm 2 mps 761 mmHg 70%
    13:00 -1°C° 0 mm 2 mps 762 mmHg 71%
    14:00 +1°C° 0 mm 1 mps 762 mmHg 71%
    15:00 +1°C° 0 mm 1 mps 762 mmHg 73%
    16:00 0°C° 0 mm 1 mps 763 mmHg 74%
    17:00 0°C° 0 mm 1 mps 763 mmHg 76%
    18:00 -1°C° 0 mm 1 mps 764 mmHg 76%
    19:00 -1°C° 0 mm 1 mps 764 mmHg 76%
    20:00 -1°C° 0 mm 1 mps 764 mmHg 77%
    21:00 -1°C° 0 mm 1 mps 764 mmHg 77%
    22:00 -1°C° 0 mm 1 mps 765 mmHg 77%
    23:00 -1°C° 0 mm 1 mps 765 mmHg 77%

    Tomorrow, 16 November, Friday

    Time Temperature Precipitation Wind Pressure Humidity
    00:00 -1°C° 0 mm 1 mps 765 mmHg 78%
    01:00 -1°C° 0 mm 1 mps 766 mmHg 78%
    02:00 -1°C° 0 mm 1 mps 766 mmHg 79%
    03:00 -1°C° 0 mm 1 mps 766 mmHg 79%
    04:00 -1°C° 0 mm 1 mps 766 mmHg 80%
    05:00 -1°C° 0 mm 1 mps 766 mmHg 80%
    06:00 -1°C° 0 mm 1 mps 767 mmHg 82%
    07:00 -3°C° 0 mm 2 mps 767 mmHg 83%
    08:00 -3°C° 0 mm 2 mps 767 mmHg 85%
    09:00 -2°C° 0 mm 2 mps 767 mmHg 81%
    10:00 -1°C° 0 mm 2 mps 767 mmHg 78%
    11:00 -1°C° 0 mm 2 mps 767 mmHg 75%
    12:00 -1°C° 0 mm 2 mps 767 mmHg 76%
    13:00 -1°C° 0 mm 2 mps 767 mmHg 78%
    14:00 -1°C° 0 mm 2 mps 767 mmHg 79%
    15:00 -1°C° 0 mm 2 mps 767 mmHg 82%
    16:00 -2°C° 0 mm 2 mps 767 mmHg 86%
    17:00 -2°C° 0 mm 2 mps 767 mmHg 89%
    18:00 -3°C° 0 mm 2 mps 767 mmHg 90%
    19:00 -3°C° 0 mm 2 mps 767 mmHg 91%
    20:00 -3°C° 0 mm 2 mps 767 mmHg 92%
    21:00 -3°C° 0 mm 2 mps 766 mmHg 93%
    22:00 -4°C° 0 mm 3 mps 766 mmHg 93%
    23:00 -4°C° 0 mm 3 mps 766 mmHg 93%

    Day after tomorrow, 17 November, Saturday

    Time Temperature Precipitation Wind Pressure Humidity
    00:00 -4°C° 0 mm 3 mps 766 mmHg 93%
    01:00 -4°C° 0 mm 3 mps 765 mmHg 93%
    02:00 -4°C° 0 mm 3 mps 765 mmHg 93%
    03:00 -2°C° 0 mm 3 mps 764 mmHg 93%
    04:00 -2°C° 0 mm 3 mps 764 mmHg 92%
    05:00 -2°C° 0 mm 3 mps 764 mmHg 91%
    06:00 -3°C° 0 mm 4 mps 763 mmHg 91%
    07:00 -3°C° 0 mm 4 mps 762 mmHg 90%
    08:00 -2°C° 0 mm 4 mps 762 mmHg 89%
    09:00 -2°C° 0.1 mm 4 mps 761 mmHg 88%
    10:00 -1°C° 0.1 mm 4 mps 761 mmHg 87%
    11:00 -1°C° 0.1 mm 4 mps 760 mmHg 85%
    12:00 -1°C° 0.4 mm 4 mps 759 mmHg 86%
    13:00 -1°C° 0.4 mm 4 mps 759 mmHg 88%
    14:00 -1°C° 0.4 mm 4 mps 758 mmHg 89%
    15:00 -1°C° 0.5 mm 4 mps 757 mmHg 89%
    16:00 -1°C° 0.5 mm 4 mps 756 mmHg 90%
    17:00 -1°C° 0.5 mm 4 mps 755 mmHg 90%
    18:00 -1°C° 0.3 mm 4 mps 754 mmHg 91%
    19:00 -1°C° 0.3 mm 4 mps 754 mmHg 91%
    20:00 -1°C° 0.3 mm 4 mps 753 mmHg 92%
    21:00 -1°C° 0.1 mm 4 mps 752 mmHg 93%
    22:00 -1°C° 0.1 mm 4 mps 752 mmHg 94%
    23:00 0°C° 0.1 mm 3 mps 751 mmHg 95%

    18 November, Sunday

    Time Temperature Precipitation Wind Pressure Humidity
    00:00 0°C° 0.1 mm 3 mps 750 mmHg 95%
    01:00 0°C° 0.1 mm 3 mps 750 mmHg 96%
    02:00 0°C° 0.1 mm 3 mps 749 mmHg 96%
    03:00 +1°C° 0.3 mm 2 mps 749 mmHg 97%
    04:00 +1°C° 0.3 mm 2 mps 749 mmHg 97%
    05:00 +1°C° 0.3 mm 2 mps 748 mmHg 97%
    06:00 +1°C° 0.2 mm 2 mps 748 mmHg 98%
    07:00 +2°C° 0.2 mm 1 mps 748 mmHg 98%
    08:00 +2°C° 0.2 mm 1 mps 748 mmHg 98%
    09:00 +2°C° 0.1 mm 1 mps 749 mmHg 98%
    10:00 +2°C° 0.1 mm 1 mps 749 mmHg 97%
    11:00 +3°C° 0.1 mm 1 mps 749 mmHg 97%
    12:00 +3°C° 0.2 mm 1 mps 750 mmHg 97%
    13:00 +3°C° 0.2 mm 1 mps 751 mmHg 97%
    14:00 +3°C° 0.2 mm 1 mps 751 mmHg 98%
    15:00 +1°C° 0.2 mm 2 mps 751 mmHg 97%
    16:00 +1°C° 0.2 mm 2 mps 752 mmHg 97%
    17:00 +1°C° 0.2 mm 2 mps 752 mmHg 97%
    18:00 +1°C° 0.2 mm 2 mps 753 mmHg 96%
    19:00 +1°C° 0.2 mm 2 mps 753 mmHg 96%
    20:00 0°C° 0.2 mm 3 mps 754 mmHg 96%
    21:00 +1°C° 0 mm 2 mps 754 mmHg 96%
    22:00 +1°C° 0 mm 2 mps 754 mmHg 96%
    23:00 -1°C° 0 mm 2 mps 755 mmHg 96%

    19 November, Monday

    Time Temperature Precipitation Wind Pressure Humidity
    00:00 -1°C° 0.1 mm 2 mps 755 mmHg 96%
    01:00 -1°C° 0.1 mm 2 mps 756 mmHg 96%
    02:00 -1°C° 0.1 mm 2 mps 756 mmHg 96%
    03:00 -2°C° 0.1 mm 2 mps 756 mmHg 96%
    04:00 -2°C° 0.1 mm 2 mps 756 mmHg 96%
    05:00 -2°C° 0.1 mm 2 mps 757 mmHg 96%
    06:00 -2°C° 0 mm 2 mps 757 mmHg 96%
    07:00 -2°C° 0 mm 2 mps 758 mmHg 96%
    08:00 -2°C° 0 mm 2 mps 758 mmHg 96%
    09:00 -1°C° 0.1 mm 3 mps 759 mmHg 95%
    10:00 -1°C° 0.1 mm 3 mps 759 mmHg 94%
    11:00 0°C° 0.1 mm 3 mps 760 mmHg 93%
    12:00 0°C° 0 mm 3 mps 760 mmHg 93%
    13:00 +1°C° 0 mm 2 mps 761 mmHg 93%
    14:00 +1°C° 0 mm 2 mps 761 mmHg 93%
    15:00 +1°C° 0 mm 2 mps 761 mmHg 93%
    16:00 -1°C° 0 mm 2 mps 761 mmHg 94%
    17:00 -1°C° 0 mm 2 mps 762 mmHg 95%
    18:00 -1°C° 0 mm 2 mps 762 mmHg 95%
    19:00 +1°C° 0 mm 1 mps 762 mmHg 96%
    20:00 0°C° 0 mm 1 mps 762 mmHg 96%
    21:00 0°C° 0 mm 1 mps 762 mmHg 96%
    22:00 0°C° 0 mm 1 mps 763 mmHg 96%
    23:00 -1°C° 0 mm 1 mps 763 mmHg 96%

    20 November, Tuesday

    Time Temperature Precipitation Wind Pressure Humidity
    00:00 0°C° 0 mm 1 mps 763 mmHg 96%
    01:00 0°C° 0 mm 1 mps 763 mmHg 96%
    02:00 0°C° 0 mm 1 mps 763 mmHg 95%
    03:00 0°C° 0 mm 1 mps 763 mmHg 95%
    04:00 -2°C° 0 mm 0 mps 762 mmHg 95%
    05:00 -2°C° 0 mm 0 mps 762 mmHg 95%
    06:00 -2°C° 0 mm 0 mps 762 mmHg 95%
    07:00 -2°C° 0 mm 0 mps 762 mmHg 95%
    08:00 -2°C° 0 mm 0 mps 762 mmHg 95%
    09:00 -2°C° 0 mm 0 mps 762 mmHg 93%
    10:00 -1°C° 0 mm 0 mps 762 mmHg 91%
    11:00 0°C° 0 mm 1 mps 762 mmHg 89%
    12:00 0°C° 0 mm 1 mps 761 mmHg 90%
    13:00 0°C° 0 mm 1 mps 761 mmHg 91%
    14:00 0°C° 0 mm 1 mps 761 mmHg 91%
    15:00 -1°C° 0 mm 1 mps 761 mmHg 92%
    16:00 -1°C° 0 mm 1 mps 760 mmHg 93%
    17:00 -2°C° 0 mm 1 mps 760 mmHg 94%
    18:00 -2°C° 0 mm 1 mps 760 mmHg 94%
    19:00 -2°C° 0 mm 1 mps 760 mmHg 94%
    20:00 -3°C° 0 mm 1 mps 760 mmHg 94%
    21:00 -3°C° 0 mm 1 mps 760 mmHg 93%
    22:00 -3°C° 0 mm 1 mps 760 mmHg 93%
    23:00 -3°C° 0 mm 1 mps 760 mmHg 92%
    Show more